Location: Waco, TX
(31.5480°N, 97.1670°W)
Time: 08:46:35
(UTC-05:00)

ISS - Pass Details

Date: 18 June 2018
Orbit: 403 x 407 km, 51.6° (Epoch: 26 June)

Event Time Altitude Azimuth Distance (km) Brightness Sun altitude
Rises 09:47:49 0° 207° (SSW) 2,314 -0.2 40.6°
Reaches altitude 10° 09:49:59 10° 198° (SSW) 1,458 -1.1 41.1°
Maximum altitude 09:53:01 35° 131° (SE) 668 -1.7 41.7°
Drops below altitude 10° 09:56:03 10° 63° (ENE) 1,465 0.0 42.3°
Sets 09:58:14 0° 54° (NE) 2,328 0.6 42.8°
